Starlink 34138

operational
NORAD ID: 63971 Int'l Des: 2025-099 Owner: SPXS Country: US Constellation: starlink
LEOCIRCULAR

About Starlink 34138

Description loading...

Live Position

Loading 3D Globe...

Upcoming Passes

Altitude History

Altitude vs Time

uPlot chart will show altitude changes over time

Two-Line Element Set

1 63971U 25099V 26061.15072364 .00027705 00000-0 10119-2 0 9999
2 63971 43.0029 215.3012 0002584 274.3855 85.6702 15.27600315 46225
Epoch: Mar 2, 2026 • Age: 26 hours

Current Status

Altitude 483.2 km
Velocity 7.63 km/s
Sub-Earth Point 19.11°N, 173.72°E
Launch Date May 13, 2025
Age 0.8 years
Type internet

Technical Details

Classification Payload
Mass 575.00 kg
Dry Mass 530.00 kg
Total Mass 575.00 kg
Length 0.30 m
Diameter 4.10 m
Span 29.00 m
Shape Box + pan
Manufacturer SPXS
Bus Type Starlink V2MO
Phase Status In Orbit
Owner/State SPXS/US

Large Constellations

Loading constellations...